B11 EFRO-EFTU

Flight info

Callsign B11
Flight time 1h 14m
Altitude 2500
Route NILJA KEMIJOKI RAIPPALUOTO NOUSU
Aircraft HAWK/M-SDGIRY/C

Departure

Time 2026-04-30 19:39
Airport Rovaniemi Airport (EFRO)

Arrival

Time 2026-04-30 20:54
Airport Turku Airport (EFTU)
Time Latitude Longitude Altitude Speed Heading
2026-04-30 19:20 66.57072 25.83180 633 ft 0 kts 262°
2026-04-30 19:33 66.57068 25.83143 636 ft 1 kts 240°
2026-04-30 19:33 66.57046 25.83123 638 ft 4 kts 175°
2026-04-30 19:34 66.57020 25.83131 638 ft 5 kts 173°
2026-04-30 19:34 66.56984 25.83143 637 ft 6 kts 171°
2026-04-30 19:34 66.56921 25.83274 633 ft 4 kts 136°
2026-04-30 19:35 66.56908 25.83295 630 ft 0 kts 154°
2026-04-30 19:36 66.56890 25.83308 629 ft 4 kts 171°
2026-04-30 19:37 66.56861 25.83318 629 ft 4 kts 172°
2026-04-30 19:37 66.56836 25.83327 628 ft 4 kts 172°
2026-04-30 19:37 66.56804 25.83339 627 ft 6 kts 172°
2026-04-30 19:37 66.56759 25.83355 625 ft 7 kts 172°
2026-04-30 19:38 66.56703 25.83376 623 ft 8 kts 172°
2026-04-30 19:38 66.56652 25.83359 623 ft 6 kts 207°
2026-04-30 19:38 66.56469 25.83014 625 ft 77 kts 217°
2026-04-30 19:38 66.55779 25.81702 695 ft 165 kts 217°
2026-04-30 19:39 66.54767 25.79775 1242 ft 201 kts 218°
2026-04-30 19:39 66.53543 25.77544 1471 ft 234 kts 218°
2026-04-30 19:39 66.52169 25.75060 1441 ft 257 kts 214°
2026-04-30 19:39 66.50496 25.73079 1419 ft 278 kts 194°
2026-04-30 19:40 66.48505 25.73050 1415 ft 291 kts 174°
2026-04-30 19:40 66.46651 25.74693 1403 ft 278 kts 152°
2026-04-30 19:40 66.45027 25.77122 1398 ft 266 kts 149°
2026-04-30 19:40 66.43506 25.79590 1399 ft 255 kts 147°
2026-04-30 19:41 66.42058 25.82012 1401 ft 248 kts 147°
2026-04-30 19:41 66.40643 25.84409 1410 ft 243 kts 147°
2026-04-30 19:41 66.39202 25.86519 1417 ft 237 kts 154°
2026-04-30 19:41 66.37736 25.88316 1403 ft 232 kts 156°
2026-04-30 19:42 66.36248 25.89744 1419 ft 226 kts 169°
2026-04-30 19:42 66.34727 25.89700 1424 ft 219 kts 205°
2026-04-30 19:42 66.33440 25.87693 1435 ft 220 kts 219°
2026-04-30 19:42 66.32276 25.85215 1428 ft 221 kts 226°
2026-04-30 19:43 66.31402 25.82080 1430 ft 221 kts 245°
2026-04-30 19:43 66.30798 25.78541 1432 ft 223 kts 251°
2026-04-30 19:43 66.30326 25.74847 1431 ft 225 kts 255°
2026-04-30 19:44 66.29503 25.67218 1429 ft 234 kts 257°
2026-04-30 19:44 66.29097 25.63258 1439 ft 239 kts 257°
2026-04-30 19:44 66.28683 25.59198 1438 ft 245 kts 257°
2026-04-30 19:44 66.28264 25.55056 1439 ft 250 kts 257°
2026-04-30 19:45 66.27843 25.50885 1444 ft 254 kts 257°
2026-04-30 19:45 66.27358 25.46624 1439 ft 259 kts 250°
2026-04-30 19:45 66.26609 25.42508 1445 ft 264 kts 242°
2026-04-30 19:45 66.25509 25.38835 1448 ft 269 kts 226°
2026-04-30 19:46 66.24041 25.35915 1450 ft 274 kts 212°
2026-04-30 19:46 66.22319 25.33838 1446 ft 277 kts 205°
2026-04-30 19:46 66.20545 25.31869 1442 ft 279 kts 208°
2026-04-30 19:46 66.18838 25.29587 1446 ft 280 kts 211°
2026-04-30 19:47 66.17279 25.26719 1447 ft 280 kts 224°
2026-04-30 19:47 66.16473 25.24249 1447 ft 279 kts 243°
2026-04-30 19:47 66.15605 25.18279 1458 ft 272 kts 254°
2026-04-30 19:47 66.15060 25.13875 1445 ft 264 kts 253°
2026-04-30 19:48 66.14515 25.09670 1441 ft 257 kts 253°
2026-04-30 19:48 66.13964 25.05531 1447 ft 250 kts 253°
2026-04-30 19:48 66.13420 25.01501 1449 ft 245 kts 253°
2026-04-30 19:48 66.12883 24.97548 1454 ft 240 kts 253°
2026-04-30 19:49 66.12365 24.93668 1452 ft 236 kts 253°
2026-04-30 19:49 66.11316 24.86148 1454 ft 229 kts 249°
2026-04-30 19:49 66.10548 24.82749 1450 ft 228 kts 227°
2026-04-30 19:50 66.09274 24.80448 1454 ft 228 kts 210°
2026-04-30 19:50 66.07749 24.79521 1456 ft 229 kts 185°
2026-04-30 19:50 66.06154 24.79229 1450 ft 231 kts 189°
2026-04-30 19:50 66.04673 24.77806 1453 ft 230 kts 212°
2026-04-30 19:51 66.03313 24.75675 1439 ft 233 kts 219°
2026-04-30 19:51 66.02008 24.73275 1422 ft 237 kts 213°
2026-04-30 19:51 66.00456 24.71776 1419 ft 244 kts 195°
2026-04-30 19:51 65.98760 24.71212 1417 ft 248 kts 186°
2026-04-30 19:52 65.97021 24.71071 1410 ft 251 kts 183°
2026-04-30 19:52 65.95265 24.71053 1411 ft 254 kts 182°
2026-04-30 19:52 65.93510 24.71078 1402 ft 256 kts 181°
2026-04-30 19:52 65.91729 24.70926 1396 ft 256 kts 194°
2026-04-30 19:53 65.90234 24.68803 1404 ft 250 kts 231°
2026-04-30 19:53 65.89368 24.65134 1416 ft 250 kts 245°
2026-04-30 19:53 65.88351 24.61699 1405 ft 255 kts 218°
2026-04-30 19:53 65.86674 24.60267 1411 ft 262 kts 189°
2026-04-30 19:54 65.84885 24.59456 1404 ft 262 kts 194°
2026-04-30 19:54 65.83101 24.58421 1394 ft 264 kts 196°
2026-04-30 19:54 65.81321 24.57281 1395 ft 265 kts 197°
2026-04-30 19:54 65.79590 24.55797 1394 ft 264 kts 208°
2026-04-30 19:55 65.78203 24.52966 1402 ft 261 kts 229°
2026-04-30 19:55 65.77083 24.49485 1404 ft 261 kts 237°
2026-04-30 19:55 65.76105 24.45753 1400 ft 262 kts 240°
2026-04-30 19:55 65.74879 24.42505 1396 ft 267 kts 213°
2026-04-30 19:56 65.73205 24.40493 1399 ft 268 kts 206°
2026-04-30 19:56 65.71495 24.38816 1400 ft 269 kts 202°
2026-04-30 19:56 65.69724 24.37300 1433 ft 270 kts 201°
2026-04-30 19:56 65.67939 24.35854 1433 ft 270 kts 200°
2026-04-30 19:57 65.66152 24.34435 1433 ft 271 kts 200°
2026-04-30 19:57 65.64361 24.33033 1435 ft 271 kts 200°
2026-04-30 19:57 65.62568 24.31634 1434 ft 271 kts 200°
2026-04-30 19:57 65.60772 24.30238 1436 ft 271 kts 200°
2026-04-30 19:58 65.58975 24.28848 1436 ft 271 kts 200°
2026-04-30 19:58 65.57182 24.27458 1444 ft 271 kts 200°
2026-04-30 19:58 65.55386 24.26062 1442 ft 271 kts 200°
2026-04-30 19:58 65.53589 24.24653 1445 ft 271 kts 201°
2026-04-30 19:59 65.51858 24.22864 1444 ft 271 kts 207°
2026-04-30 19:59 65.50194 24.20740 1447 ft 270 kts 212°
2026-04-30 19:59 65.47017 24.15925 1448 ft 270 kts 216°
2026-04-30 20:00 65.45446 24.13445 1454 ft 270 kts 216°
2026-04-30 20:00 65.43876 24.10966 1448 ft 270 kts 215°
2026-04-30 20:00 65.42294 24.08513 1445 ft 271 kts 215°
2026-04-30 20:00 65.40701 24.06085 1447 ft 271 kts 215°
2026-04-30 20:01 65.36672 23.99937 1480 ft 442 kts 214°
2026-04-30 20:01 65.34789 23.97122 1463 ft 501 kts 213°
2026-04-30 20:01 65.30700 23.91088 1434 ft 527 kts 212°
2026-04-30 20:02 65.24369 23.82132 1443 ft 529 kts 212°
2026-04-30 20:02 65.21190 23.77699 1448 ft 529 kts 212°
2026-04-30 20:03 65.15884 23.70339 1449 ft 530 kts 212°
2026-04-30 20:03 65.12716 23.65969 1460 ft 520 kts 212°
2026-04-30 20:03 65.09596 23.61665 1457 ft 516 kts 212°
2026-04-30 20:03 65.05507 23.55921 1459 ft 515 kts 212°
2026-04-30 20:04 65.03429 23.52986 1451 ft 515 kts 212°
2026-04-30 20:04 65.00352 23.48629 1458 ft 515 kts 212°
2026-04-30 20:04 64.97275 23.44273 1463 ft 516 kts 212°
2026-04-30 20:05 64.91117 23.35569 1474 ft 516 kts 212°
2026-04-30 20:05 64.88042 23.31233 1474 ft 516 kts 212°
2026-04-30 20:05 64.81919 23.22636 1475 ft 516 kts 212°
2026-04-30 20:06 64.78838 23.18331 1474 ft 513 kts 212°
2026-04-30 20:06 64.75788 23.14085 1462 ft 508 kts 212°
2026-04-30 20:06 64.72752 23.09856 1468 ft 507 kts 212°
2026-04-30 20:06 64.69722 23.05652 1479 ft 507 kts 212°
2026-04-30 20:07 64.66687 23.01437 1480 ft 507 kts 212°
2026-04-30 20:07 64.63656 22.97240 1480 ft 507 kts 212°
2026-04-30 20:07 64.57590 22.88859 1482 ft 507 kts 212°
2026-04-30 20:08 64.54552 22.84673 1483 ft 507 kts 212°
2026-04-30 20:08 64.51515 22.80504 1482 ft 507 kts 212°
2026-04-30 20:08 64.48476 22.76335 1470 ft 507 kts 212°
2026-04-30 20:08 64.45428 22.72206 1475 ft 508 kts 212°
2026-04-30 20:09 64.42371 22.68091 1480 ft 508 kts 212°
2026-04-30 20:09 64.39312 22.63989 1484 ft 508 kts 212°
2026-04-30 20:09 64.33235 22.55865 1490 ft 508 kts 212°
2026-04-30 20:10 64.27172 22.47799 1489 ft 500 kts 212°
2026-04-30 20:10 64.24157 22.43804 1492 ft 500 kts 212°
2026-04-30 20:10 64.21144 22.39820 1483 ft 500 kts 211°
2026-04-30 20:11 64.15105 22.31852 1499 ft 500 kts 211°
2026-04-30 20:11 64.12087 22.27877 1496 ft 501 kts 211°
2026-04-30 20:11 64.09064 22.23906 1498 ft 501 kts 211°
2026-04-30 20:12 64.03009 22.15985 1504 ft 500 kts 211°
2026-04-30 20:12 63.99993 22.12051 1501 ft 500 kts 211°
2026-04-30 20:12 63.97009 22.08159 1505 ft 500 kts 211°
2026-04-30 20:13 63.93984 22.04223 1502 ft 500 kts 211°
2026-04-30 20:13 63.90965 22.00309 1502 ft 500 kts 211°
2026-04-30 20:13 63.87938 21.96392 1512 ft 500 kts 211°
2026-04-30 20:13 63.84904 21.92475 1511 ft 501 kts 211°
2026-04-30 20:14 63.81874 21.88565 1514 ft 501 kts 211°
2026-04-30 20:14 63.78840 21.84665 1508 ft 502 kts 211°
2026-04-30 20:14 63.75807 21.80772 1517 ft 502 kts 211°
2026-04-30 20:14 63.72809 21.76938 1515 ft 501 kts 211°
2026-04-30 20:15 63.69772 21.73068 1517 ft 502 kts 211°
2026-04-30 20:15 63.66725 21.69193 1516 ft 502 kts 211°
2026-04-30 20:15 63.63691 21.65332 1502 ft 501 kts 211°
2026-04-30 20:15 63.60645 21.61478 1517 ft 501 kts 211°
2026-04-30 20:16 63.57436 21.58363 1514 ft 504 kts 200°
2026-04-30 20:16 63.54072 21.56181 1519 ft 504 kts 197°
2026-04-30 20:16 63.50730 21.54245 1521 ft 487 kts 195°
2026-04-30 20:16 63.47488 21.52452 1517 ft 472 kts 195°
2026-04-30 20:17 63.44309 21.50731 1526 ft 468 kts 195°
2026-04-30 20:17 63.41149 21.49039 1522 ft 465 kts 195°
2026-04-30 20:17 63.38078 21.47408 1528 ft 442 kts 195°
2026-04-30 20:17 63.35188 21.45830 1521 ft 423 kts 197°
2026-04-30 20:18 63.32506 21.43587 1525 ft 404 kts 208°
2026-04-30 20:18 63.30214 21.40214 1527 ft 388 kts 223°
2026-04-30 20:18 63.28408 21.35918 1529 ft 374 kts 235°
2026-04-30 20:18 63.27124 21.31020 1532 ft 362 kts 248°
2026-04-30 20:19 63.26248 21.25861 1532 ft 356 kts 256°
2026-04-30 20:19 63.25613 21.20464 1536 ft 366 kts 259°
2026-04-30 20:19 63.25075 21.14860 1535 ft 376 kts 261°
2026-04-30 20:19 63.24568 21.09098 1532 ft 388 kts 261°
2026-04-30 20:20 63.24060 21.03065 1532 ft 407 kts 262°
2026-04-30 20:20 63.23541 20.96750 1532 ft 423 kts 262°
2026-04-30 20:20 63.23012 20.90237 1530 ft 437 kts 262°
2026-04-30 20:20 63.22469 20.83531 1534 ft 441 kts 262°
2026-04-30 20:21 63.21931 20.76904 1530 ft 434 kts 262°
2026-04-30 20:21 63.21137 20.70465 1538 ft 433 kts 251°
2026-04-30 20:21 63.19658 20.64661 1536 ft 434 kts 235°
2026-04-30 20:21 63.17513 20.59947 1501 ft 436 kts 221°
2026-04-30 20:22 63.15021 20.56131 1522 ft 436 kts 213°
2026-04-30 20:22 63.12289 20.53231 1534 ft 437 kts 202°
2026-04-30 20:22 63.09367 20.51389 1532 ft 437 kts 194°
2026-04-30 20:22 63.06401 20.49964 1526 ft 435 kts 194°
2026-04-30 20:23 63.03482 20.48607 1520 ft 434 kts 193°
2026-04-30 20:23 63.00758 20.47348 3285 ft 382 kts 194°
2026-04-30 20:23 62.98139 20.46078 3251 ft 388 kts 194°
2026-04-30 20:23 62.95458 20.44755 3253 ft 401 kts 194°
2026-04-30 20:24 62.92698 20.43362 3249 ft 413 kts 194°
2026-04-30 20:24 62.89856 20.41926 3247 ft 425 kts 194°
2026-04-30 20:24 62.86943 20.40462 3236 ft 434 kts 194°
2026-04-30 20:24 62.83963 20.38981 3236 ft 443 kts 194°
2026-04-30 20:25 62.77835 20.36045 3241 ft 458 kts 193°
2026-04-30 20:25 62.74703 20.34577 3243 ft 464 kts 193°
2026-04-30 20:26 62.68316 20.31658 3245 ft 474 kts 193°
2026-04-30 20:26 62.61803 20.28689 3250 ft 482 kts 193°
2026-04-30 20:26 62.58514 20.27180 3249 ft 485 kts 193°
2026-04-30 20:27 62.51917 20.24180 3257 ft 490 kts 193°
2026-04-30 20:27 62.45209 20.21114 3256 ft 495 kts 193°
2026-04-30 20:28 62.38444 20.18012 3259 ft 498 kts 193°
2026-04-30 20:28 62.31666 20.14914 3259 ft 498 kts 193°
2026-04-30 20:29 62.24874 20.11821 3265 ft 499 kts 193°
2026-04-30 20:30 62.14662 20.07264 3271 ft 500 kts 193°
2026-04-30 20:30 62.04444 20.02741 3271 ft 500 kts 193°
2026-04-30 20:31 61.94221 19.98259 3267 ft 502 kts 193°
2026-04-30 20:32 61.83933 19.93884 3276 ft 503 kts 193°
2026-04-30 20:32 61.77106 19.91012 3281 ft 504 kts 193°
2026-04-30 20:33 61.73672 19.89576 3278 ft 503 kts 193°
2026-04-30 20:33 61.66793 19.86716 3280 ft 504 kts 193°
2026-04-30 20:33 61.63346 19.85285 3284 ft 505 kts 193°
2026-04-30 20:34 61.56444 19.82434 3292 ft 506 kts 192°
2026-04-30 20:34 61.49520 19.84037 3279 ft 512 kts 155°
2026-04-30 20:35 61.46590 19.88231 3287 ft 512 kts 136°
2026-04-30 20:35 61.44190 19.93724 3300 ft 511 kts 129°
2026-04-30 20:35 61.39805 20.05393 3303 ft 510 kts 127°
2026-04-30 20:36 61.37651 20.11172 3296 ft 510 kts 127°
2026-04-30 20:36 61.35475 20.17032 3292 ft 509 kts 127°
2026-04-30 20:36 61.31144 20.28703 3287 ft 509 kts 127°
2026-04-30 20:37 61.28975 20.34538 3284 ft 510 kts 127°
2026-04-30 20:37 61.26828 20.40283 3286 ft 510 kts 127°
2026-04-30 20:37 61.24650 20.46097 3289 ft 510 kts 127°
2026-04-30 20:37 61.22466 20.51919 3285 ft 510 kts 127°
2026-04-30 20:38 61.20299 20.57685 3282 ft 510 kts 127°
2026-04-30 20:38 61.18100 20.63525 3288 ft 510 kts 127°
2026-04-30 20:38 61.15914 20.69321 3288 ft 510 kts 127°
2026-04-30 20:39 61.11901 20.79898 3253 ft 423 kts 127°
2026-04-30 20:39 61.10153 20.84468 3241 ft 390 kts 127°
2026-04-30 20:39 61.08525 20.88700 3235 ft 364 kts 127°
2026-04-30 20:40 61.05538 20.96414 3233 ft 326 kts 127°
2026-04-30 20:40 61.04150 20.99979 3233 ft 312 kts 127°
2026-04-30 20:40 61.02815 21.03396 3234 ft 300 kts 127°
2026-04-30 20:41 61.00183 21.10160 3238 ft 306 kts 126°
2026-04-30 20:41 60.98861 21.13626 3247 ft 308 kts 126°
2026-04-30 20:41 60.97534 21.17113 3204 ft 308 kts 126°
2026-04-30 20:41 60.96240 21.20519 3079 ft 296 kts 126°
2026-04-30 20:42 60.94975 21.23808 2866 ft 290 kts 127°
2026-04-30 20:42 60.93718 21.27039 2533 ft 289 kts 127°
2026-04-30 20:42 60.91198 21.33487 1791 ft 289 kts 127°
2026-04-30 20:43 60.89947 21.36693 1468 ft 287 kts 127°
2026-04-30 20:43 60.88712 21.39886 1167 ft 284 kts 127°
2026-04-30 20:43 60.87516 21.42946 1205 ft 273 kts 128°
2026-04-30 20:44 60.85167 21.48861 1229 ft 262 kts 128°
2026-04-30 20:44 60.84018 21.51734 1232 ft 258 kts 128°
2026-04-30 20:44 60.81770 21.57339 1233 ft 251 kts 128°
2026-04-30 20:45 60.79513 21.62960 1235 ft 264 kts 128°
2026-04-30 20:45 60.78328 21.65915 1239 ft 273 kts 128°
2026-04-30 20:45 60.77113 21.68952 1243 ft 276 kts 128°
2026-04-30 20:46 60.73590 21.77723 1226 ft 257 kts 128°
2026-04-30 20:46 60.72465 21.80518 1219 ft 252 kts 127°
2026-04-30 20:47 60.70267 21.85960 1221 ft 244 kts 128°
2026-04-30 20:47 60.69194 21.88611 1218 ft 241 kts 128°
2026-04-30 20:48 60.67066 21.93866 1222 ft 253 kts 128°
2026-04-30 20:48 60.65910 21.96737 1223 ft 270 kts 128°
2026-04-30 20:48 60.64683 21.99791 1219 ft 285 kts 128°
2026-04-30 20:48 60.63415 22.03015 1209 ft 298 kts 123°
2026-04-30 20:49 60.62623 22.06932 1205 ft 300 kts 103°
2026-04-30 20:49 60.62194 22.10937 1201 ft 284 kts 97°
2026-04-30 20:49 60.61873 22.14888 1200 ft 281 kts 97°
2026-04-30 20:50 60.61219 22.22447 1140 ft 263 kts 97°
2026-04-30 20:50 60.60895 22.26090 1005 ft 258 kts 97°
2026-04-30 20:50 60.60570 22.29592 985 ft 246 kts 98°
2026-04-30 20:50 60.60261 22.32988 941 ft 245 kts 98°
2026-04-30 20:51 60.59872 22.36350 957 ft 244 kts 111°
2026-04-30 20:51 60.57151 22.39874 954 ft 242 kts 176°
2026-04-30 20:51 60.55504 22.40088 965 ft 232 kts 186°
2026-04-30 20:52 60.54487 22.39665 1007 ft 220 kts 202°
2026-04-30 20:52 60.53198 22.38156 828 ft 212 kts 224°
2026-04-30 20:52 60.51798 22.33061 726 ft 146 kts 261°
2026-04-30 20:53 60.51622 22.31048 487 ft 142 kts 266°
2026-04-30 20:53 60.51565 22.29716 334 ft 139 kts 266°
2026-04-30 20:53 60.51479 22.27798 159 ft 129 kts 265°
2026-04-30 20:54 60.51378 22.25527 149 ft 33 kts 265°
2026-04-30 20:54 60.51314 22.25282 146 ft 15 kts 213°
2026-04-30 20:54 60.51225 22.25301 145 ft 13 kts 138°
2026-04-30 20:55 60.51208 22.25581 151 ft 13 kts 83°
2026-04-30 20:55 60.51220 22.25858 152 ft 22 kts 85°
2026-04-30 20:55 60.51243 22.26164 151 ft 22 kts 69°
2026-04-30 20:56 60.51304 22.26631 143 ft 15 kts 86°
2026-04-30 20:56 60.51313 22.26819 146 ft 11 kts 85°
2026-04-30 20:56 60.51331 22.27230 150 ft 17 kts 85°
2026-04-30 20:57 60.51342 22.27479 152 ft 18 kts 84°
2026-04-30 20:57 60.51352 22.27701 150 ft 12 kts 84°
2026-04-30 20:57 60.51360 22.27880 149 ft 14 kts 85°
2026-04-30 20:58 60.51383 22.28405 141 ft 20 kts 85°
2026-04-30 20:58 60.51382 22.28542 142 ft 6 kts 131°
2026-04-30 20:58 60.51328 22.28566 142 ft 10 kts 185°
2026-04-30 20:58 60.51276 22.28517 146 ft 6 kts 209°
2026-04-30 20:59 60.51259 22.28372 147 ft 8 kts 287°
2026-04-30 20:59 60.51284 22.28331 146 ft 0 kts 349°
2026-04-30 21:00 60.51284 22.28330 146 ft 0 kts 349°